Location: Katlenburg-Lindau
(51.6782°N, 10.1065°E)
Time: 07:49:31
(UTC+00:00)

Daily predictions for brighter satellites

Satellite Brightness Start Highest point End
(mag) Time Altitude Azimuth Time Altitude Azimuth Time Altitude Azimuth
Cosmos 2219 Rocket 2.9 20:19:18 10° S 20:24:20 34° ESE 20:29:22 10° NE
Cosmos 2333 Rocket 2.8 20:20:19 10° S 20:25:35 39° ESE 20:30:52 10° NE
FALCON 9 DEB 4.1 20:24:36 10° SSW 20:27:04 22° SE 20:29:33 10° E
Cosmos 1844 4.0 20:24:02 10° NW 20:29:33 63° WSW 20:35:04 10° SSE
ERS-1 Rocket 3.2 20:24:59 10° SSE 20:29:57 64° ENE 20:34:58 10° N
Geosat 4.1 20:25:18 10° SE 20:30:20 78° ENE 20:35:23 10° NNW
Cosmos 1025 Rocket 3.1 20:26:04 10° S 20:30:23 61° E 20:34:41 10° NNE
Lacrosse 5 rocket 1.1 20:27:14 10° SW 20:30:48 50° SE 20:34:17 10° ENE
Cosmos 2228 4.4 20:29:15 10° N 20:33:02 27° ENE 20:36:46 10° SE
Cosmos 1536 Rocket 4.3 20:29:17 10° SSE 20:33:24 38° E 20:37:31 10° NNE
Cosmos 1725 Rocket 4.1 20:27:25 10° N 20:33:36 66° ENE 20:39:44 10° SSE
Spot 2 Rocket 3.6 20:29:41 10° SSE 20:34:46 85° WSW 20:39:54 10° NNW
Cosmos 1331 Rocket 4.0 20:32:38 10° SSW 20:37:53 77° ESE 20:43:12 10° NNE
DNEPR-1 R/B 3.7 20:34:52 10° NW 20:39:03 64° SW 20:43:24 10° SSE
FALCON 9 DEB 3.5 20:39:44 10° SW 20:42:34 34° SSE 20:45:25 10° E
CENTAUR R/B 3.8 20:38:25 10° WSW 20:44:36 51° NNW 20:52:01 10° NE
KORONAS-FOTON 4.5 20:40:55 10° SSW 20:44:38 56° WNW 20:48:22 10° N
CARTOSAT-1 3.8 20:41:09 10° S 20:45:27 72° WSW 20:49:48 10° NNW
Cosmos 2237 Rocket 3.8 20:42:28 10° SE 20:45:49 16° E 20:49:11 10° ENE
Terra 2.0 20:41:36 10° SSE 20:46:18 63° ENE 20:51:01 10° N
SL-14 R/B 3.5 20:42:38 10° S 20:46:36 59° E 20:50:34 10° NNE
CZ-2C R/B 4.1 20:42:01 10° NNE 20:46:49 75° WNW 20:51:34 10° SSW
SPOT 1/Viking Rocket 4.3 20:42:33 10° S 20:47:32 50° W 20:52:34 10° NNW
Cosmos 2360 Rocket 2.4 20:42:50 10° SW 20:48:29 79° WNW 20:54:10 10° NNE
Cosmos 1674 3.6 20:45:04 10° SSW 20:48:41 49° WNW 20:52:18 10° N
Cosmos 1953 3.7 20:46:37 10° NNW 20:50:24 37° W 20:54:09 10° SSW
FALCON 9 DEB 3.6 20:47:43 10° SSW 20:50:33 32° SSE 20:53:22 10° E
Cosmos 1455 4.1 20:49:03 10° NNE 20:51:52 19° ENE 20:54:38 10° ESE
Cosmos 2322 Rocket 3.3 20:47:15 10° SW 20:52:47 50° NW 20:58:21 10° NNE
SL-16 R/B 3.7 20:47:34 10° WSW 20:52:56 42° NW 20:58:20 10° NNE
FALCON 9 DEB 3.3 20:50:11 10° SW 20:53:06 38° SSE 20:56:01 10° E
SPOT 5 3.0 20:48:45 10° SSE 20:53:50 85° WSW 20:58:40 10° NNW
Cosmos 1802 Rocket 4.3 20:48:07 10° NNW 20:54:23 71° W 21:00:41 10° S
Cosmos 1975 Rocket 4.2 20:51:47 10° SSW 20:55:59 44° WNW 21:00:15 10° N
H-2A R/B 4.2 20:52:30 10° NNE 20:56:16 34° E 20:59:52 11° SSE
Meteor 1-24 Rocket 4.1 20:51:52 10° SSE 20:56:58 46° E 21:02:15 10° NNE
Cosmos 1302 Rocket 4.1 20:54:03 10° S 20:59:13 62° ESE 21:04:25 10° NNE
Cosmos 1300 2.7 20:58:45 10° NNW 21:02:35 83° W 21:06:19 10° S
Resurs 01 Rocket 4.0 21:03:55 10° SW 21:06:57 18° W 21:10:00 10° NW
USA 267 3.8 21:04:50 10° E 21:11:17 63° NNE 21:17:45 10° WNW
Cosmos 1340 2.9 21:08:47 10° SSW 21:12:32 72° WNW 21:16:20 10° N
Cosmos 2278 Rocket 2.3 21:10:07 10° NNW 21:15:49 74° ENE 21:20:55 13° SE
Cosmos 2322 3.7 21:10:28 10° SSW 21:16:07 86° ESE 21:21:50 10° NNE
Cosmos 1844 Rocket 4.4 21:11:43 10° NW 21:16:20 26° WSW 21:20:55 10° SSW
COSMOS 2428 2.8 21:12:10 10° SSW 21:17:50 65° ESE 21:23:32 10° NE
Cosmos 389 Rocket 2.5 21:18:16 10° N 21:21:42 67° ENE 21:24:17 16° SSE
Cosmos 1726 Rocket 4.1 21:19:01 10° N 21:23:23 50° ENE 21:26:53 15° SSE
Cosmos 2058 Rocket 4.2 21:19:39 10° N 21:23:43 33° ENE 21:27:08 13° SE
NOSS 0 Rocket 4.4 21:18:13 10° S 21:23:58 41° ESE 21:29:46 10° NE
Cosmos 1867 3.8 21:18:54 10° NW 21:24:20 63° SW 21:28:54 15° SSE
SL-23 DEB 4.4 21:24:28 10° W 21:28:30 78° SSW 21:35:35 10° ESE
Cosmos 968 Rocket 3.9 21:24:03 10° NNW 21:29:05 57° WSW 21:33:29 13° S
Cosmos 1486 Rocket 4.2 21:29:24 10° NNW 21:34:36 67° WSW 21:38:52 15° S
Cosmos 1626 4.1 21:32:28 10° SW 21:35:39 27° WNW 21:38:52 10° N
SJ 16-02 3.3 21:32:46 10° N 21:36:07 21° NE 21:39:27 10° E
FALCON 9 DEB 3.3 21:34:48 10° W 21:38:13 74° N 21:41:39 10° ENE
Meteor 2-10 Rocket 3.5 21:33:19 10° NNW 21:38:25 75° W 21:42:36 15° S
Cosmos 1606 Rocket 3.6 21:34:34 10° N 21:39:06 86° E 21:42:31 17° S
Cosmos 2233 Rocket 4.2 21:33:45 10° NNW 21:39:52 68° W 21:45:35 12° S
Cosmos 1943 Rocket 3.6 21:36:23 10° NNW 21:41:19 32° NE 21:46:13 10° ESE
Uosat 12 SS-18 rocket 4.2 21:37:57 10° SW 21:42:24 76° SE 21:47:39 10° NE
Cosmos 1992 Rocket 4.1 21:37:59 10° S 21:43:05 63° ESE 21:48:16 10° NNE
Spot 4 4.3 21:41:10 15° SE 21:44:55 52° ENE 21:49:33 10° N
Cosmos 1892 Rocket 4.0 21:43:59 17° SSE 21:47:04 47° E 21:51:22 10° NNE
Meteor 1-4 Rocket 4.2 21:47:21 10° NNE 21:50:13 23° ENE 21:52:29 13° ESE
Cosmos 1346 Rocket 2.8 21:47:03 14° SSW 21:50:32 88° W 21:54:36 10° NNE
Cosmos 1447 Rocket 4.5 21:44:53 11° S 21:50:55 89° E 21:57:07 10° N
Cosmos 1354 Rocket 4.1 21:45:32 10° NNW 21:50:55 89° ENE 21:55:00 18° SSE
ATLAS CENTAUR R/B 3.7 21:48:42 10° WNW 21:51:18 16° WSW 21:53:59 10° SSW
Cosmos 1980 3.9 21:51:14 13° S 21:56:11 54° ESE 22:01:43 10° NE
Cosmos 1441 Rocket 4.3 21:54:42 19° SE 21:56:42 30° E 22:00:03 10° NNE
BREEZE-M DEB (TANK) 3.8 21:48:07 10° SW 21:56:44 33° SSE 21:59:57 10° E
ATLAS 3B R/B 2.9 21:51:57 10° SW 21:58:32 72° NW 22:05:24 10° NE
SL-4 R/B 2.4 21:56:50 10° SW 22:00:36 36° SSE 22:04:06 10° E
ALOS 2 3.4 21:57:54 16° SE 22:01:06 41° ENE 22:05:15 10° N
FALCON 9 DEB 2.7 21:59:19 10° WSW 22:02:28 81° SSE 22:05:37 10° ENE
Cosmos 2219 Rocket 3.0 22:02:32 10° SW 22:08:06 53° NW 22:13:39 10° NNE
Cosmos 1607 4.2 22:01:57 10° NW 22:08:16 60° WSW 22:12:53 18° SSE
Cosmos 2333 Rocket 3.3 22:04:17 10° SW 22:09:49 47° NW 22:15:21 10° NNE
Lacrosse 5 rocket 2.2 22:06:25 10° W 22:09:55 46° NNW 22:13:24 10° ENE
Cosmos 2228 4.1 22:06:35 10° NNW 22:10:42 40° W 22:14:06 14° SSW
Cosmos 1703 3.8 22:08:43 22° SSE 22:10:54 44° E 22:14:42 10° NNE
Iridium 2 3.7 22:12:19 19° SSW 22:14:52 74° W 22:18:38 10° N
FALCON 9 DEB 2.9 22:14:55 10° W 22:18:02 79° N 22:21:08 10° ENE
Meteor 2-1 Rocket 4.2 22:12:42 10° NNW 22:18:16 89° W 22:22:14 20° S
USA 215 3.6 22:12:19 10° ENE 22:18:32 44° SE 22:24:43 10° SSW
Terra 3.8 22:20:57 10° SW 22:24:28 20° W 22:28:00 10° NW
COBE Rocket 3.9 22:22:10 21° SSE 22:25:36 85° ENE 22:30:31 10° NNW
FALCON 9 DEB 2.9 22:22:56 10° W 22:26:04 81° N 22:29:12 10° ENE
SL-16 R/B 3.0 22:23:56 20° SSE 22:27:05 34° ESE 22:32:09 10° NE
Cosmos 1455 2.9 22:24:02 10° NNW 22:27:42 44° W 22:29:59 20° SSW
FALCON 9 DEB 3.0 22:25:30 10° W 22:28:37 75° N 22:31:44 10° ENE
Cosmos 2237 Rocket 2.1 22:23:44 12° SSW 22:29:02 84° ESE 22:34:42 10° NNE
Cosmos 1464 Rocket 4.1 22:23:19 10° NNW 22:29:41 75° W 22:34:26 19° S
Cosmos-2242 4.5 22:26:33 10° N 22:30:25 29° ENE 22:33:34 14° SE
Cosmos 1184 Rocket 2.8 22:29:49 24° SSW 22:31:37 73° WNW 22:34:53 10° N
Cosmos 1328 4.2 22:31:00 25° SSE 22:32:58 48° E 22:36:45 10° NNE
Cosmos 2369 Rocket 3.3 22:30:06 10° NNW 22:35:31 41° NE 22:40:54 10° ESE
Cosmos 192 4.3 22:33:47 17° SSW 22:37:41 88° ESE 22:42:38 10° NNE
GEOS 3 Rocket 3.9 22:38:08 21° SSE 22:41:39 54° SW 22:46:54 10° NW
ATLAS CENTAUR R/B 3.7 22:40:45 15° SSW 22:45:14 57° SE 22:58:39 10° ENE
USA 32 4.1 22:44:41 10° N 22:49:57 71° E 22:53:23 22° SSE
Aureole 3 4.0 22:46:46 10° N 22:50:27 50° ENE 22:53:18 20° SE
Cosmos 1816 Rocket 4.5 22:47:50 20° S 22:52:10 78° E 22:58:19 10° NNE
USA 267 3.2 22:47:44 10° SE 22:54:17 75° SSW 23:00:51 10° WNW
Cosmos 1812 Rocket 3.5 22:52:26 10° N 22:56:50 79° E 22:59:21 25° SSE
Okean 1-7 Rocket 3.9 22:54:15 20° SSW 22:57:16 64° WNW 23:01:42 10° N
Cosmos 2278 Rocket 3.8 22:55:02 10° NW 22:59:21 23° WSW 23:02:45 14° SW
BREEZE-M DEB (TANK) 3.0 22:56:49 10° W 23:00:24 75° S 23:11:18 10° E
Cosmos 2058 Rocket 4.4 22:57:45 10° NNW 23:01:40 31° W 23:04:24 16° SW
Cosmos 2297 3.7 22:56:47 10° NNW 23:02:25 72° WSW 23:06:11 22° SSE
COSMOS 2428 4.5 22:57:28 10° WSW 23:02:34 32° NW 23:07:42 10° NNE
Cosmos 2034 Rocket 4.3 22:59:42 10° NNW 23:05:46 58° W 23:10:01 20° SSW
Thor Agena Rocket 4.0 23:01:33 10° NNE 23:06:39 50° E 23:09:46 22° SSE
SAR-Lupe-2 3.6 23:04:20 10° NNE 23:07:55 66° ESE 23:09:33 30° S
NOSS 2-3 (C) 4.4 23:07:22 25° SSE 23:09:01 34° ESE 23:13:23 10° NE
SJ 16-02 1.4 23:10:46 10° NNW 23:15:07 63° WSW 23:17:27 26° S
FALCON 9 DEB 3.1 23:11:48 10° WNW 23:15:14 82° N 23:18:39 10° E
Cosmos 1174 4.4 23:14:18 19° SSW 23:18:13 67° SE 23:22:44 10° NE
Meteor 1-27 4.2 23:17:50 10° NNW 23:23:26 86° ENE 23:27:14 21° SSE
GP-B 3.1 23:18:59 10° N 23:23:28 87° W 23:26:01 25° S
Meteor 1-11 4.2 23:19:57 22° S 23:23:41 87° E 23:29:19 10° NNE
Meteor 1-4 Rocket 3.8 23:22:10 10° NNW 23:25:13 28° W 23:26:36 21° SW
Nimbus 7 Rocket 4.5 23:19:17 10° NNE 23:25:23 89° WNW 23:29:47 20° SSW
Cosmos 1943 Rocket 2.3 23:19:59 10° NW 23:25:25 60° WSW 23:28:53 22° S
Cosmos 1825 Rocket 4.0 23:25:14 24° SSE 23:27:43 54° E 23:32:04 10° NNE
MTI 4.1 23:28:08 10° N 23:31:07 53° WNW 23:32:27 28° SW
Cosmos 1892 3.2 23:30:16 26° SSE 23:32:11 51° E 23:35:58 10° NNE
Cosmos 2142 Rocket 4.5 23:27:13 10° N 23:33:23 82° E 23:37:52 20° SSE
Cosmos 1437 Rocket 4.0 23:30:47 10° N 23:34:24 35° ENE 23:37:14 14° SE
Cosmos 1869 3.4 23:31:42 10° N 23:35:49 80° E 23:38:08 25° SSE
Helios 1A 4.3 23:32:32 11° SE 23:36:08 35° ENE 23:39:59 10° N
CZ-2D R/B 4.3 23:33:11 10° NE 23:36:09 15° E 23:39:06 10° ESE
ALOS 2 4.0 23:35:17 18° SW 23:37:34 27° W 23:41:19 10° NW
FALCON 9 DEB 3.2 23:35:08 10° W 23:38:16 66° N 23:41:23 10° E
Tsikada Rocket 4.2 23:34:13 18° SSW 23:38:48 63° WNW 23:44:57 10° N
Cosmos 990 Rocket 3.9 23:33:55 10° NNW 23:39:09 87° WSW 23:42:50 20° SSE
Lacrosse 4 Rocket 3.2 23:36:14 10° NNW 23:39:56 30° NE 23:43:33 10° ESE
SL-4 R/B 1.6 23:36:02 10° WSW 23:39:57 83° S 23:43:36 10° E
Cosmos 1943 4.2 23:36:45 19° SSE 23:39:59 33° ESE 23:44:58 10° NE
EO 1 Del DPAF 3.8 23:37:16 10° NNE 23:40:51 43° E 23:42:38 25° SSE
USA 229 DEB 3.8 23:38:46 21° SSW 23:43:07 56° SE 23:49:49 10° NE
USA 229 3.8 23:38:53 21° SSW 23:43:13 55° SE 23:49:55 10° NE
NOSS 8 (F) 4.4 23:43:55 34° S 23:44:52 49° SE 23:47:45 10° NE
Lacrosse 5 rocket 2.8 23:46:13 10° WNW 23:49:32 35° N 23:52:53 10° ENE
Cosmos 1603 4.5 23:46:12 20° SSE 23:49:36 39° ESE 23:54:50 10° NE
ATLAS 3B R/B 4.4 23:44:17 10° W 23:50:19 34° NNW 23:56:35 10° NE
NOSS 3-1 (C) 3.3 23:46:44 16° SW 23:51:10 84° SE 23:57:43 10° NE
Cosmos 1242 Rocket 4.2 23:48:58 10° N 23:52:11 29° ENE 23:55:13 11° SE
Cosmos 1953 Rocket 3.7 23:50:42 24° S 23:53:14 65° E 23:57:38 10° NNE
FALCON 9 DEB 3.0 23:50:40 10° WNW 23:53:46 73° N 23:56:51 10° E
SL-16 R/B 3.7 23:48:08 10° SE 23:53:48 40° ENE 23:59:29 10° N
Cosmos 1937 Rocket 3.6 23:49:03 10° NNW 23:54:25 78° ENE 23:59:01 14° SSE
Cosmos 1408 2.6 23:53:09 28° S 23:54:59 76° E 23:58:41 10° NNE
